Location: Asheville, NC
(35.6000°N, 82.5500°W)
Time: 08:40:14
(UTC-04:00)

ISS - Pass Details

Date: 12 October 2017
Orbit: 401 x 408 km, 51.6° (Epoch: 19 October)

Event Time Altitude Azimuth Distance (km) Brightness Sun altitude
Rises 19:34:05 0° 326° (NW) 2,321 0.5 -8.1°
Reaches altitude 10° 19:36:56 10° 353° (N) 1,460 -0.9 -8.6°
Maximum altitude 19:38:46 14° 27° (NNE) 1,239 -1.7 -9.0°
Enters shadow 19:40:27 11° 59° (ENE) 1,427 -1.6 -9.4°
